Regional Weather Roundup
Issued by NWS

Home | Current Version | Previous Version | Text Only | Print | Product List | Glossary On
Versions: 1 2 3 4 5 6 7 8 9 10 11 12 13 14 15 16 17 18 19 20 21 22 23 24 25 26 27 28 29 30 31 32 33 34 35 36 37 38 39 40 41 42 43 44 45 46 47 48 49 50
000
ASUS43 KLSX 251710
RWRMO

WEATHER SUMMARY FOR MISSOURI
NATIONAL WEATHER SERVICE SPRINGFIELD MO
1100 AM CST SAT FEB 25 2017

NOTE: "FAIR" INDICATES FEW OR NO CLOUDS BELOW 12,000 FEET WITH NO
       SIGNIFICANT WEATHER AND/OR OBSTRUCTIONS TO VISIBILITY.
       CURRENT SKY AND/OR WEATHER CONDITIONS ARE NOT AVAILABLE FOR
       CHILLICOTHE AND FARMINGTON.

MOZ001>031-035>038-043-044-053-054-251800-
...NORTHERN AND WESTERN MISSOURI...

CITY           SKY/WX    TMP DP  RH WIND       PRES   REMARKS
KANSAS CTY INT MOSUNNY   31  15  52 NW8       30.17S WCI  23
KANSAS C DTWN  SUNNY     32  14  47 W7        30.19R WCI  26
LEE`S SUMMIT   SUNNY     32  12  43 NW8       30.17S WCI  25
ST JOSEPH      CLOUDY    27  18  69 NW7       30.18F WCI  19
CHILLICOTHE      N/A     31  15  52 NW10      30.16R WCI  22
KIRKSVILLE     SUNNY     27  15  61 NW15G23   30.08S WCI  15

$$
MOZ066>068-077>081-088>096-101>105-251800-
...SOUTHWEST MISSOURI...

CITY           SKY/WX    TMP DP  RH WIND       PRES   REMARKS
SPRINGFIELD    SUNNY     34  18  52 NW12      30.15S WCI  25
JOPLIN         SUNNY     34  19  54 W9        30.22R WCI  27
BRANSON        SUNNY     34  18  51 NW8       30.16R WCI  27

$$
MOZ032>034-039>042-045>050-055>058-069>072-251800-
...CENTRAL MISSOURI...

CITY           SKY/WX    TMP DP  RH WIND       PRES   REMARKS
COLUMBIA       SUNNY     32  14  47 W17       30.11R WCI  21
JEFFERSON CITY SUNNY     31  13  47 NW16G28   30.14R WCI  20
ROLLA          SUNNY     32  14  47 W14G23    30.09R WCI  22
SEDALIA        SUNNY     33  13  43 NW13G24   30.16R WCI  24
WHITEMAN AFB   MOSUNNY   33  11  40 NW16      30.15S WCI  23
WARRENSBURG    SUNNY     34  10  37 NW12G17   30.18R WCI  25
OSAGE BEACH    SUNNY     33  12  41 W10G21    30.15R WCI  25

$$
MOZ051-052-059>065-251800-
...EAST CENTRAL MISSOURI...

CITY           SKY/WX    TMP DP  RH WIND       PRES   REMARKS
ST LOUIS INTL  MOSUNNY   35  14  42 NW14G23   30.07S WCI  26
SPIRIT OF STL  MOSUNNY   35  14  42 NW18G24   30.07S WCI  24
ST CHARLES     SUNNY     33  13  43 W18G24    30.07R WCI  22

$$
MOZ072>076-082>087-097>100-106>115-251800-
...SOUTH CENTRAL AND SOUTHEAST MISSOURI...

CITY           SKY/WX    TMP DP  RH WIND       PRES   REMARKS
CAPE GIRARDEAU SUNNY     37  16  42 NW13G22   30.09S WCI  29
FARMINGTON     MOSUNNY   34  15  46 W13G21    30.07R WCI  25
POPLAR BLUFF   SUNNY     38  19  46 NW12      30.12R
WEST PLAINS    SUNNY     38  17  42 NW13G20   30.11R WCI  30

$$



USA.gov is the U.S. government's official web portal to all federal, state and local government web resources and services.